[[{"header":{"parameterUnit":"m.s-1","parameterCategory":1,"la1":30.2991,"la2":30.254,"lo1":-89.0895,"lo2":-89.0444,"dy":0.0017,"dx":0.0017,"nx":28,"ny":28,"refTime":"2024-08-20T03:00:00:Z","depth":0,"parameterNumber":2,"parameterNumberName":"U-component_of_WINDS"},"data":[0,0,0,0,0,0,0,0,0,0,0,0,0,0,0,0,0,0,0,0,0,0,0,0,0,0,0,0,0,0,0,0,0,0,0,0,0,0,0,0,0,0,0,0,0,0,0,0,0,0,0,0,0,0,0,0,0,0,-1.5501,-1.5501,0,-1.5506,-1.5506,-1.5506,-1.5441,-1.5439,-1.5437,-1.5436,-1.5441,-1.5443,-1.5444,0,0,0,0,0,0,0,0,0,0,0,0,0,-1.5436,-1.5437,-1.5501,-1.5501,-1.5501,-1.5506,-1.5506,-1.5506,-1.5441,-1.5439,-1.5437,-1.5435,-1.544,-1.5442,-1.5445,0,0,0,0,0,0,0,0,0,0,0,0,0,-1.5455,-1.5438,-1.5501,-1.547,-1.5467,-1.5506,-1.5506,-1.5506,-1.5442,-1.5439,-1.5436,-1.5434,-1.544,-1.5442,-1.5445,-1.5515,0,0,-1.5453,-1.5454,0,0,0,0,0,0,0,0,-1.5454,-1.5457,-1.5474,-1.5472,-1.5469,-1.547,-1.5485,-1.5509,-1.5442,-1.5451,-1.5436,-1.5432,-1.5453,-1.5454,-1.5461,-1.5515,-1.5515,-1.5453,-1.5455,-1.5456,-1.5457,0,0,0,0,0,0,0,-1.5453,-1.5457,-1.5503,-1.5475,-1.5471,-1.5455,-1.5455,-1.5489,-1.5467,-1.545,-1.5445,-1.5447,-1.5451,-1.5458,-1.5461,-1.5515,-1.5453,-1.5456,-1.5457,-1.5458,-1.5626,-1.5628,0,0,0,0,0,0,-1.5456,-1.5456,-1.5503,-1.5503,-1.5455,-1.5458,-1.5458,-1.5472,-1.5466,-1.5463,-1.5449,-1.5444,-1.5455,-1.5457,-1.5461,-1.5542,-1.5456,-1.5459,-1.546,-1.5623,-1.5626,-1.5629,0,0,0,0,0,0,-1.5454,-1.546,-1.5503,-1.5478,-1.5482,-1.5462,-1.5479,-1.5474,-1.5481,-1.5465,-1.5461,-1.5461,-1.5453,-1.5457,-1.5501,-1.5541,-1.546,-1.5462,-1.562,-1.5624,-1.5628,-1.5705,0,0,0,0,0,0,-1.5453,-1.546,-1.5487,-1.5479,-1.5484,-1.5544,-1.5481,-1.5476,-1.5486,-1.5479,-1.5476,-1.5473,-1.5451,-1.5498,-1.5504,-1.5543,-1.5464,-1.5616,-1.5622,-1.5627,-1.5699,-1.5712,-1.5722,0,0,0,0,0,-1.5451,-1.5509,-1.5489,-1.5495,-1.5517,-1.5547,-1.5549,-1.5524,-1.549,-1.5516,-1.5506,-1.5473,-1.5535,-1.5503,-1.551,-1.555,-1.5613,-1.562,-1.5626,-1.5694,-1.5709,-1.5722,0,0,0,0,0,0,-1.5523,-1.5508,-1.5485,-1.5543,-1.5546,-1.5536,-1.5569,-1.5541,-1.5555,-1.5548,-1.5515,-1.5515,-1.5565,-1.5561,-1.5526,-1.5617,-1.5568,-1.5576,-1.5618,-1.5632,-1.5643,-1.5644,-1.5467,0,0,0,0,0,-1.5545,-1.5571,-1.5556,-1.5608,-1.5611,-1.559,-1.5602,-1.5581,-1.5584,-1.5585,-1.5578,-1.5582,-1.5602,-1.5617,-1.5634,-1.5697,-1.5696,-1.5729,-1.574,-1.575,-1.5758,-1.5791,-1.5805,-1.565,-1.565,-1.565,0,0,-1.5593,-1.5587,-1.5605,-1.5622,-1.5623,-1.565,-1.5592,-1.5623,-1.5642,-1.559,-1.5632,-1.5627,-1.5629,-1.5683,-1.5706,-1.5682,-1.58,-1.5758,-1.5766,-1.5768,-1.5799,-1.5813,-1.5826,-1.5655,-1.5654,-1.5653,0,0,-1.5692,-1.5691,-1.5734,-1.5735,-1.5736,-1.5721,-1.5731,-1.5724,-1.5719,-1.576,-1.5721,-1.5743,-1.578,-1.5783,-1.5789,-1.5887,-1.5858,-1.5894,-1.5955,-1.5988,-1.6,-1.6011,-1.6047,-1.606,-1.5901,-1.5901,-1.5902,0,-1.5751,-1.579,-1.576,-1.5793,-1.5802,-1.5754,-1.5798,-1.58,-1.5808,-1.5815,-1.5786,-1.583,-1.5828,-1.5882,-1.5906,-1.5912,-1.5923,-1.5895,-1.6001,-1.6011,-1.6021,-1.6054,-1.6068,-1.5906,-1.5905,-1.5905,-1.5905,0,-1.5862,-1.589,-1.5924,-1.5932,-1.5944,-1.5982,-1.5957,-1.5973,-1.5951,-1.5939,-1.5981,-1.5976,-1.5992,-1.6003,-1.5982,-1.6054,-1.6039,-1.6006,-1.5957,-1.604,-1.6072,-1.6084,-1.5912,-1.5911,-1.5909,-1.5908,0,0,-1.6011,-1.5999,-1.6012,-1.6015,-1.6011,-1.6032,-1.6067,-1.6082,-1.6097,-1.6102,-1.6132,-1.6162,-1.6131,-1.6138,-1.6117,-1.6145,-1.6224,-1.6109,-1.6108,-1.6131,-1.6303,-1.6329,-1.6345,-1.6203,-1.6205,-1.6207,-1.6303,0,-1.6108,-1.6169,-1.6141,-1.6205,-1.6229,-1.6183,-1.6214,-1.6215,-1.6204,-1.6224,-1.6211,-1.6233,-1.6191,-1.6195,-1.622,-1.6209,-1.6258,-1.6201,-1.6231,-1.6232,-1.6234,-1.6361,-1.6389,-1.648,-1.6315,-1.6317,-1.6319,0,-1.6231,-1.6241,-1.6307,-1.6298,-1.6307,-1.6336,-1.6347,-1.6365,-1.6365,-1.6355,-1.6362,-1.6334,-1.6367,-1.6317,-1.6363,-1.6325,-1.6335,-1.6331,-1.6334,-1.6337,-1.6282,-1.6369,-1.6509,-1.6523,-1.6338,-1.6336,-1.6335,0,-1.6334,-1.6364,-1.6407,-1.641,-1.64,-1.6421,-1.6418,-1.6415,-1.6426,-1.6435,-1.6441,-1.6454,-1.6462,-1.6473,-1.6449,-1.6414,-1.6499,-1.6446,-1.6492,-1.6493,-1.6514,-1.6513,-1.6658,-1.6517,-1.6517,-1.6517,-1.6517,0,-1.6447,-1.649,-1.6453,-1.648,-1.6525,-1.6492,-1.6538,-1.653,-1.6528,-1.6552,-1.6512,-1.6536,-1.6501,-1.6521,-1.6502,-1.6544,-1.6547,-1.654,-1.6535,-1.6545,-1.6546,-1.6553,-1.6546,-1.652,-1.652,-1.6519,-1.6518,0,-1.6571,-1.6548,-1.6592,-1.6578,-1.6575,-1.661,-1.6598,-1.6622,-1.6607,-1.6638,-1.6644,-1.6621,-1.6642,-1.6618,-1.6638,-1.6625,-1.6681,-1.6666,-1.6682,-1.6678,-1.6726,-1.6722,-1.6882,-1.6901,-1.6746,-1.6748,-1.6749,0,-1.6646,-1.6677,-1.6666,-1.6679,-1.6678,-1.67,-1.671,-1.6678,-1.669,-1.6691,-1.6715,-1.6733,-1.6746,-1.6782,-1.6767,-1.6782,-1.6768,-1.6822,-1.677,-1.6778,-1.677,-1.6769,-1.6772,-1.6834,-1.6836,-1.6837,-1.6838,0,-1.6781,-1.6767,-1.6783,-1.6795,-1.6808,-1.6815,-1.682,-1.6833,-1.68,-1.6815,-1.6836,-1.6846,-1.6865,-1.6884,-1.6894,-1.689,-1.686,-1.6854,-1.6866,-1.6878,-1.6886,-1.6883,-1.6713,-1.6852,-1.685,-1.6849,-1.6849,-1.6848,-1.6883,-1.6909,-1.6905,-1.6923,-1.6923,-1.6928,-1.695,-1.6937,-1.6954,-1.6967,-1.6946,-1.6973,-1.6971,-1.6981,-1.6981,-1.7001,-1.6978,-1.6994,-1.6999,-1.7004,-1.7012,-1.6881,-1.7003,-1.7002,-1.7002,-1.7001,-1.7001,0,-1.7018,-1.7012,-1.7029,-1.7037,-1.7051,-1.7019,-1.7022,-1.7036,-1.706,-1.706,-1.7073,-1.7097,-1.7114,-1.71,-1.7114,-1.7133,-1.7119,-1.7138,-1.7137,-1.7137,-1.7031,-1.702,-1.7149,-1.7149,-1.7149,-1.7149,-1.7149,-1.7149,-1.709,-1.7131,-1.7117,-1.7157,-1.7151,-1.7176,-1.7181,-1.7185,-1.7185,-1.7213,-1.7227,-1.7217,-1.7211,-1.7224,-1.7239,-1.7234,-1.7242,-1.7266,-1.7257,-1.7159,-1.7144,-1.7131,-1.712,-1.7268,-1.7268,-1.7361,-1.7362,-1.7362]},{"header":{"parameterUnit":"m.s-1","parameterCategory":1,"la1":30.2991,"la2":30.254,"lo1":-89.0895,"lo2":-89.0444,"dy":0.0017,"dx":0.0017,"nx":28,"ny":28,"refTime":"2024-08-20T03:00:00:Z","depth":0,"parameterNumber":3,"parameterNumberName":"V-component_of_WINDS"},"data":[0,0,0,0,0,0,0,0,0,0,0,0,0,0,0,0,0,0,0,0,0,0,0,0,0,0,0,0,0,0,0,0,0,0,0,0,0,0,0,0,0,0,0,0,0,0,0,0,0,0,0,0,0,0,0,0,0,0,-2.2927,-2.2928,0,-2.3019,-2.302,-2.3021,-2.3059,-2.3058,-2.3058,-2.3058,-2.3154,-2.3157,-2.316,0,0,0,0,0,0,0,0,0,0,0,0,0,-2.2786,-2.2788,-2.2927,-2.2928,-2.2929,-2.3019,-2.302,-2.3021,-2.3059,-2.3058,-2.3058,-2.3058,-2.3154,-2.3157,-2.316,0,0,0,0,0,0,0,0,0,0,0,0,0,-2.2859,-2.2789,-2.2926,-2.2958,-2.2962,-2.3019,-2.302,-2.3022,-2.3059,-2.3058,-2.3058,-2.3058,-2.3152,-2.3157,-2.3161,-2.3193,0,0,-2.3173,-2.3175,0,0,0,0,0,0,0,0,-2.2855,-2.2864,-2.2953,-2.2956,-2.2961,-2.3027,-2.3006,-2.3079,-2.3059,-2.3022,-2.3058,-2.3058,-2.3112,-2.312,-2.3138,-2.3197,-2.3201,-2.3174,-2.3176,-2.3178,-2.3179,0,0,0,0,0,0,0,-2.285,-2.2861,-2.2963,-2.2954,-2.2959,-2.2969,-2.2979,-2.302,-2.3068,-2.3025,-2.3028,-2.3039,-2.3115,-2.3134,-2.3141,-2.3203,-2.3174,-2.3177,-2.318,-2.3181,-2.3296,-2.3296,0,0,0,0,0,0,-2.2839,-2.2856,-2.296,-2.2966,-2.2906,-2.2972,-2.2983,-2.3006,-2.3068,-2.3077,-2.3039,-2.304,-2.3127,-2.3136,-2.3144,-2.3187,-2.3178,-2.3182,-2.3184,-2.3295,-2.3296,-2.3296,0,0,0,0,0,0,-2.2836,-2.2848,-2.2957,-2.2912,-2.2927,-2.2975,-2.3,-2.3008,-2.3027,-2.3078,-2.3087,-2.3049,-2.3127,-2.3138,-2.3181,-2.3191,-2.3184,-2.3187,-2.3294,-2.3295,-2.3296,-2.3273,0,0,0,0,0,0,-2.2832,-2.2847,-2.2859,-2.2912,-2.2929,-2.2991,-2.3001,-2.301,-2.3034,-2.3037,-2.309,-2.3099,-2.3128,-2.3174,-2.3185,-2.3197,-2.3191,-2.3294,-2.3295,-2.3296,-2.3273,-2.3273,-2.3273,0,0,0,0,0,-2.2827,-2.2848,-2.2859,-2.2871,-2.2944,-2.2991,-2.3001,-2.3033,-2.3035,-2.3048,-2.3081,-2.3097,-2.3188,-2.3178,-2.3191,-2.3204,-2.3293,-2.3294,-2.3296,-2.3273,-2.3273,-2.3273,0,0,0,0,0,0,-2.2795,-2.2856,-2.2868,-2.2908,-2.2944,-2.2997,-2.3015,-2.3032,-2.3069,-2.3069,-2.3108,-2.312,-2.316,-2.3186,-2.3174,-2.3239,-2.3242,-2.3246,-2.3221,-2.3221,-2.3221,-2.3214,-2.3194,0,0,0,0,0,-2.2793,-2.2825,-2.2876,-2.2906,-2.2924,-2.2966,-2.2988,-2.3009,-2.3049,-2.3064,-2.31,-2.3138,-2.3176,-2.32,-2.3237,-2.3277,-2.329,-2.3292,-2.3292,-2.3292,-2.3295,-2.332,-2.3322,-2.33,-2.33,-2.33,0,0,-2.2788,-2.2825,-2.2843,-2.2901,-2.2932,-2.2965,-2.2979,-2.3013,-2.3039,-2.307,-2.3113,-2.314,-2.3186,-2.3227,-2.3248,-2.325,-2.3303,-2.3293,-2.3292,-2.3296,-2.3321,-2.3323,-2.3325,-2.3301,-2.3301,-2.3301,0,0,-2.2797,-2.2828,-2.2857,-2.2888,-2.2934,-2.2962,-2.2969,-2.3021,-2.304,-2.3083,-2.3108,-2.3139,-2.3203,-2.3235,-2.3259,-2.3282,-2.3299,-2.3293,-2.3292,-2.3316,-2.3318,-2.332,-2.3329,-2.3332,-2.3296,-2.3296,-2.3295,0,-2.2785,-2.2836,-2.287,-2.2903,-2.2929,-2.2959,-2.2989,-2.3018,-2.3074,-2.3091,-2.3093,-2.3175,-2.3207,-2.3258,-2.3263,-2.3282,-2.3292,-2.3287,-2.3315,-2.3317,-2.3319,-2.3329,-2.3332,-2.3295,-2.3295,-2.3295,-2.3295,0,-2.2821,-2.2856,-2.2874,-2.2928,-2.2955,-2.2987,-2.3027,-2.3051,-2.307,-2.3099,-2.3144,-2.3184,-2.323,-2.3244,-2.3263,-2.3298,-2.3298,-2.3307,-2.3311,-2.332,-2.333,-2.3333,-2.3293,-2.3294,-2.3294,-2.3294,0,0,-2.2812,-2.2885,-2.2891,-2.2916,-2.2971,-2.2999,-2.3033,-2.3078,-2.3099,-2.3137,-2.3168,-2.3221,-2.323,-2.3258,-2.3281,-2.3302,-2.332,-2.3309,-2.3311,-2.3311,-2.3363,-2.3356,-2.336,-2.3331,-2.3332,-2.3333,-2.3359,0,-2.2829,-2.2891,-2.2923,-2.2971,-2.3005,-2.3034,-2.3065,-2.3102,-2.3129,-2.3163,-2.3194,-2.3232,-2.324,-2.3257,-2.3279,-2.3313,-2.3331,-2.3311,-2.3362,-2.3363,-2.335,-2.3365,-2.3358,-2.3381,-2.3363,-2.3364,-2.3364,0,-2.2857,-2.2895,-2.2947,-2.2999,-2.3014,-2.3041,-2.3086,-2.3117,-2.3161,-2.318,-2.3211,-2.3235,-2.3273,-2.3274,-2.3328,-2.3314,-2.3337,-2.3357,-2.3358,-2.3365,-2.3365,-2.3373,-2.3389,-2.3393,-2.337,-2.337,-2.3369,0,-2.2847,-2.2911,-2.2951,-2.2972,-2.3033,-2.3051,-2.3078,-2.3121,-2.3147,-2.3187,-2.3204,-2.3248,-2.3272,-2.3306,-2.3341,-2.3338,-2.3393,-2.3396,-2.3411,-2.341,-2.3421,-2.342,-2.3442,-2.3434,-2.3434,-2.3434,-2.3434,0,-2.2863,-2.2894,-2.2948,-2.2972,-2.3008,-2.3046,-2.3081,-2.311,-2.3148,-2.318,-2.3208,-2.3237,-2.3281,-2.3317,-2.3344,-2.3386,-2.3397,-2.3414,-2.3421,-2.3412,-2.341,-2.3428,-2.3428,-2.3435,-2.3435,-2.3434,-2.3434,0,-2.2857,-2.2894,-2.294,-2.2995,-2.301,-2.3034,-2.3082,-2.3108,-2.3137,-2.3177,-2.3189,-2.3235,-2.3279,-2.3317,-2.3374,-2.3393,-2.3436,-2.3444,-2.3421,-2.3425,-2.3439,-2.3438,-2.3474,-2.3481,-2.3467,-2.3467,-2.3467,0,-2.2866,-2.289,-2.2948,-2.2972,-2.2998,-2.3035,-2.3062,-2.31,-2.3127,-2.3179,-2.3199,-2.3244,-2.3282,-2.335,-2.339,-2.3434,-2.3444,-2.3454,-2.3451,-2.3442,-2.3446,-2.3445,-2.3448,-2.3454,-2.3454,-2.3454,-2.3454,0,-2.2877,-2.2895,-2.2932,-2.2977,-2.3008,-2.3045,-2.3082,-2.31,-2.3146,-2.3175,-2.3219,-2.3249,-2.3308,-2.3353,-2.3402,-2.3431,-2.3451,-2.3455,-2.3461,-2.3452,-2.3438,-2.3448,-2.3422,-2.3454,-2.3454,-2.3454,-2.3454,-2.3454,-2.288,-2.2904,-2.2949,-2.299,-2.3023,-2.3058,-2.3085,-2.3119,-2.3157,-2.3208,-2.3228,-2.3274,-2.3319,-2.3387,-2.3415,-2.3452,-2.3456,-2.3464,-2.3467,-2.3468,-2.3468,-2.3432,-2.3461,-2.3461,-2.3461,-2.3461,-2.3461,0,-2.2893,-2.2924,-2.2962,-2.3014,-2.3048,-2.3063,-2.3106,-2.3133,-2.3173,-2.3213,-2.3251,-2.3303,-2.3347,-2.3391,-2.3438,-2.3459,-2.347,-2.3471,-2.347,-2.3477,-2.3461,-2.3452,-2.3461,-2.3461,-2.3461,-2.3461,-2.3461,-2.3461,-2.2904,-2.2947,-2.297,-2.303,-2.3061,-2.3106,-2.3129,-2.3162,-2.3195,-2.3252,-2.3289,-2.3317,-2.3359,-2.341,-2.3452,-2.3464,-2.348,-2.3479,-2.3493,-2.3478,-2.3477,-2.3477,-2.3468,-2.3482,-2.3482,-2.3506,-2.3506,-2.3506]}]]